User: anonymous   Login
Location: Codford Saint Peter
(51.1597°N, 2.0531°W)
Time: 10:36:19
(UTC+00:00)
Language:

Cosmos 1782 Rocket - Orbit

View from above orbital plane
View from above orbital plane
View from above satellite
View from above satellite

Ground track
Ground track

The orbit data is extracted from the following two-line orbital elements,

1 16987U 86074B   20336.92511218  .00000150  00000-0  15383-4 0  9999
2 16987  82.5176 206.8119 0019540  59.5638 311.2099 14.83088055824667
Epoch (UTC): 01 December 2020 22:12:09
Eccentricity: 0.0019540
inclination: 82.5176°
perigee height: 606 km
apogee height: 633 km
right ascension of ascending node: 206.8119°
argument of perigee: 59.5638°
revolutions per day: 14.83088055
mean anomaly at epoch: 311.2099°
orbit number at epoch: 82466

The dashed part of the orbit path shows where the satellite is in the earth's shadow,  

DLR